Flag for Cameroon Weather past 2 weeks in Bamenda, Cameroon

Now
77 °F

Drizzle. More clouds than sun.


Feels Like: 78 °F
Forecast: 63 / 74 °F
Wind: No wind

Location: Douala Obs.

Current Time: Aug 31, 2015 at 8:14:46 AM

Latest Report: Aug 31, 2015 at 7:00 AM


Visibility: 1 mi

Pressure: 29.95 "Hg (25.98 "Hg at 1240m altitude)

Humidity: 94%

Dew point: 75 °F

Location of BamendaLocation

Historic Weather in Bamenda — Graph

°F

Bamenda temperature yesterday

Maximum temperature yesterday: 82 °F (at 12:00 PM)
Minimum temperature yesterday: 75 °F (at 1:00 AM)
Average temperature yesterday: 78 °F

Past Weeks' High & Low Weather Summary

 TemperatureHumidityPressure
High84 °F (Aug 19, 2:00 PM)100% (Aug 16, 6:00 AM)30.04 "Hg (Aug 16, 6:00 AM)
Low75 °F (Aug 16, 6:00 AM)66% (Aug 21, 2:00 PM)29.80 "Hg (Aug 22, 5:00 PM)
Average78 °F92%29.91 "Hg
* Reported Aug 16 6:00 AM — Aug 31 6:00 AM, Bamenda, Weather by CustomWeather, © 2015

Note: Actual official high and low records may vary slightly from our data, if they occured in-between our weather recording intervals... More about our weather records

Advertising

Bamenda weather history for previous 24 hours

 ConditionsComfort  
Time TempWeatherWind HumidityBarometerVisibility
6:00 AM
Mon, Aug 31
77 °FPartly cloudy.2 mph94%29.92 "Hg5 mi
5:00 AM77 °FPassing clouds.1 mph94%29.92 "HgN/A
4:00 AM77 °FPassing clouds.5 mph94%29.95 "HgN/A
3:00 AM77 °FPassing clouds.3 mph94%29.95 "HgN/A
2:00 AM77 °FPassing clouds.2 mph94%29.95 "HgN/A
1:00 AM77 °FPartly cloudy.2 mph94%29.95 "HgN/A
12:00 AM77 °FThunderstorms. Partly cloudy.5 mph94%29.98 "HgN/A
11:00 PM
Sun, Aug 30
77 °FThunderstorms. Partly cloudy.1 mph94%29.98 "HgN/A
10:00 PM77 °FThunderstorms. Passing clouds.1 mph94%29.95 "HgN/A
9:00 PM77 °FThunderstorms. Partly cloudy.2 mph94%29.95 "HgN/A
8:00 PM79 °FThunderstorms. Partly cloudy.9 mph89%29.92 "Hg3 mi
7:00 PM79 °FThunderstorms. Passing clouds.7 mph84%29.89 "HgN/A
6:00 PM79 °FThunderstorms. Partly sunny.8 mph89%29.89 "HgN/A
5:00 PM81 °FThunderstorms. Partly sunny.10 mph79%29.89 "HgN/A
4:00 PM81 °FThunderstorms. Partly sunny.10 mph84%29.89 "HgN/A
3:00 PM81 °FPartly sunny.10 mph84%29.92 "HgN/A
2:00 PM82 °FPartly sunny.14 mph79%29.95 "HgN/A
1:00 PM82 °FPartly sunny.9 mph79%29.98 "HgN/A
12:00 PM82 °FPartly sunny.10 mph79%30.01 "HgN/A
11:00 AM79 °FThunderstorms. Partly sunny.2 mph89%30.04 "HgN/A
10:00 AM77 °FThunderstorms. Broken clouds.10 mph94%30.04 "Hg5 mi
9:00 AM77 °FDrizzle. Broken clouds.1 mph94%30.01 "Hg2 mi
8:00 AM77 °FDrizzle. More clouds than sun.1 mph94%29.98 "Hg1 mi
Weather by CustomWeather, © 2015

See weather overviewHow to use our weather pages